Time,TemperatureF,DewpointF,PressureIn,WindDirection,WindDirectionDegrees,WindSpeedMPH,WindSpeedGustMPH,Humidity,HourlyPrecipIn,Conditions,Clouds,dailyrainin,SoftwareType,DateUTC
2013-07-04 00:00:00,74.0,67.8,30.03,ENE,62,0.0,0.0,81,0.00,,,0.00,WeatherCatV1.02B3,2013-07-04 05:00:00,
2013-07-04 00:05:00,73.9,67.7,30.03,ENE,62,0.0,0.0,81,0.00,,,0.00,WeatherCatV1.02B3,2013-07-04 05:05:00,
2013-07-04 00:10:00,73.8,67.9,30.03,ENE,62,0.0,0.0,82,0.00,,,0.00,WeatherCatV1.02B3,2013-07-04 05:10:00,
2013-07-04 00:15:00,73.7,67.8,30.03,ENE,62,0.0,0.0,82,0.00,,,0.00,WeatherCatV1.02B3,2013-07-04 05:15:00,
2013-07-04 00:20:00,73.5,67.7,30.02,ENE,62,0.0,0.0,82,0.00,,,0.00,WeatherCatV1.02B3,2013-07-04 05:20:00,
2013-07-04 00:25:00,73.5,67.7,30.02,ENE,62,0.0,0.0,82,0.00,,,0.00,WeatherCatV1.02B3,2013-07-04 05:25:00,
2013-07-04 00:30:00,73.4,67.9,30.02,ENE,62,0.0,0.0,83,0.00,,,0.00,WeatherCatV1.02B3,2013-07-04 05:30:00,
2013-07-04 00:35:00,73.3,67.8,30.02,ENE,62,0.0,0.0,83,0.00,,,0.00,WeatherCatV1.02B3,2013-07-04 05:35:00,
2013-07-04 00:40:00,73.1,67.6,30.02,ENE,62,0.0,0.0,83,0.00,,,0.00,WeatherCatV1.02B3,2013-07-04 05:40:00,
2013-07-04 00:45:00,73.0,67.5,30.02,ENE,62,0.0,0.0,83,0.00,,,0.00,WeatherCatV1.02B3,2013-07-04 05:45:00,
2013-07-04 00:50:00,73.0,67.9,30.02,ENE,62,0.0,0.0,84,0.00,,,0.00,WeatherCatV1.02B3,2013-07-04 05:50:00,
2013-07-04 00:55:00,72.8,67.7,30.02,ENE,62,0.0,0.0,84,0.00,,,0.00,WeatherCatV1.02B3,2013-07-04 05:55:00,
2013-07-04 01:00:00,72.7,67.6,30.01,ENE,62,0.0,0.0,84,0.00,,,0.00,WeatherCatV1.02B3,2013-07-04 06:00:00,
2013-07-04 01:05:00,72.6,67.8,30.01,ENE,62,0.0,0.0,85,0.00,,,0.00,WeatherCatV1.02B3,2013-07-04 06:05:00,
2013-07-04 01:10:00,72.5,67.7,30.01,ENE,62,0.0,0.0,85,0.00,,,0.00,WeatherCatV1.02B3,2013-07-04 06:10:00,
2013-07-04 01:15:00,72.4,67.6,30.01,ENE,62,0.0,0.0,85,0.00,,,0.00,WeatherCatV1.02B3,2013-07-04 06:15:00,
2013-07-04 01:20:00,72.3,67.9,30.01,ENE,62,0.0,0.0,86,0.00,,,0.00,WeatherCatV1.02B3,2013-07-04 06:20:00,
2013-07-04 01:25:00,72.3,67.9,30.01,ENE,62,0.0,0.0,86,0.00,,,0.00,WeatherCatV1.02B3,2013-07-04 06:25:00,
2013-07-04 01:30:00,72.2,68.1,30.01,ENE,62,0.0,0.0,87,0.00,,,0.00,WeatherCatV1.02B3,2013-07-04 06:30:00,
2013-07-04 01:35:00,72.1,68.0,30.01,ENE,62,0.0,0.0,87,0.00,,,0.00,WeatherCatV1.02B3,2013-07-04 06:35:00,
2013-07-04 01:40:00,72.1,68.0,30.00,ENE,62,0.0,0.0,87,0.00,,,0.00,WeatherCatV1.02B3,2013-07-04 06:40:00,
2013-07-04 01:45:00,72.0,67.9,30.01,ENE,62,0.0,0.0,87,0.00,,,0.00,WeatherCatV1.02B3,2013-07-04 06:45:00,
2013-07-04 01:50:00,71.9,68.1,30.00,ENE,62,0.0,0.0,88,0.00,,,0.00,WeatherCatV1.02B3,2013-07-04 06:50:00,
2013-07-04 01:55:00,71.8,68.0,30.00,ENE,62,0.0,0.0,88,0.00,,,0.00,WeatherCatV1.02B3,2013-07-04 06:55:00,
2013-07-04 02:00:00,71.7,67.9,30.01,ENE,62,0.0,0.0,88,0.00,,,0.00,WeatherCatV1.02B3,2013-07-04 07:00:00,
2013-07-04 02:05:00,71.7,67.9,30.01,ENE,62,0.0,0.0,88,0.00,,,0.00,WeatherCatV1.02B3,2013-07-04 07:05:00,
2013-07-04 02:10:00,71.6,67.8,30.00,ENE,62,0.0,0.0,88,0.00,,,0.00,WeatherCatV1.02B3,2013-07-04 07:10:00,
2013-07-04 02:15:00,71.5,68.1,30.00,ENE,62,0.0,0.0,89,0.00,,,0.00,WeatherCatV1.02B3,2013-07-04 07:15:00,
2013-07-04 02:20:00,71.5,68.1,30.00,ENE,62,0.0,0.0,89,0.00,,,0.00,WeatherCatV1.02B3,2013-07-04 07:20:00,
2013-07-04 02:25:00,71.4,68.0,30.00,ENE,62,0.0,0.0,89,0.00,,,0.00,WeatherCatV1.02B3,2013-07-04 07:25:00,
2013-07-04 02:30:00,71.3,67.9,30.00,ENE,62,0.0,0.0,89,0.00,,,0.00,WeatherCatV1.02B3,2013-07-04 07:30:00,
2013-07-04 02:35:00,71.2,67.8,30.00,ENE,62,0.0,0.0,89,0.00,,,0.00,WeatherCatV1.02B3,2013-07-04 07:35:00,
2013-07-04 02:40:00,71.2,67.8,30.01,ENE,62,0.0,0.0,89,0.00,,,0.00,WeatherCatV1.02B3,2013-07-04 07:40:00,
2013-07-04 02:45:00,71.1,67.7,30.01,ENE,62,0.0,0.0,89,0.00,,,0.00,WeatherCatV1.02B3,2013-07-04 07:45:00,
2013-07-04 02:50:00,71.0,67.6,30.01,ENE,62,0.0,0.0,89,0.00,,,0.00,WeatherCatV1.02B3,2013-07-04 07:50:00,
2013-07-04 02:55:00,70.9,67.8,30.01,ENE,62,0.0,0.0,90,0.00,,,0.00,WeatherCatV1.02B3,2013-07-04 07:55:00,
2013-07-04 03:00:00,70.8,67.7,30.00,ENE,62,0.0,0.0,90,0.00,,,0.00,WeatherCatV1.02B3,2013-07-04 08:00:00,
2013-07-04 03:05:00,70.7,67.6,30.00,ENE,62,0.0,0.0,90,0.00,,,0.00,WeatherCatV1.02B3,2013-07-04 08:05:00,
2013-07-04 03:10:00,70.6,67.5,30.00,ENE,62,0.0,0.0,90,0.00,,,0.00,WeatherCatV1.02B3,2013-07-04 08:10:00,
2013-07-04 03:15:00,70.6,67.5,30.00,ENE,62,0.0,0.0,90,0.00,,,0.00,WeatherCatV1.02B3,2013-07-04 08:15:00,
2013-07-04 03:20:00,70.4,67.3,30.00,ENE,62,0.0,0.0,90,0.00,,,0.00,WeatherCatV1.02B3,2013-07-04 08:20:00,
2013-07-04 03:25:00,70.4,67.6,30.00,ENE,62,0.0,0.0,91,0.00,,,0.00,WeatherCatV1.02B3,2013-07-04 08:25:00,
2013-07-04 03:30:00,70.3,67.5,30.00,ENE,62,0.0,1.0,91,0.00,,,0.00,WeatherCatV1.02B3,2013-07-04 08:30:00,
2013-07-04 03:35:00,70.2,67.4,30.00,ENE,62,0.0,0.0,91,0.00,,,0.00,WeatherCatV1.02B3,2013-07-04 08:35:00,
2013-07-04 03:40:00,70.1,67.3,30.00,ENE,62,0.0,0.0,91,0.00,,,0.00,WeatherCatV1.02B3,2013-07-04 08:40:00,
2013-07-04 03:45:00,70.1,67.3,30.00,ENE,62,0.0,0.0,91,0.00,,,0.00,WeatherCatV1.02B3,2013-07-04 08:45:00,
2013-07-04 03:50:00,69.9,67.1,30.00,ENE,62,0.0,0.0,91,0.00,,,0.00,WeatherCatV1.02B3,2013-07-04 08:50:00,
2013-07-04 03:55:00,69.9,67.5,30.00,ENE,62,0.0,0.0,92,0.00,,,0.00,WeatherCatV1.02B3,2013-07-04 08:55:00,
2013-07-04 04:00:00,69.8,67.4,30.00,ENE,62,0.0,0.0,92,0.00,,,0.00,WeatherCatV1.02B3,2013-07-04 09:00:00,
2013-07-04 04:05:00,69.7,67.3,30.00,ENE,62,0.0,0.0,92,0.00,,,0.00,WeatherCatV1.02B3,2013-07-04 09:05:00,
2013-07-04 04:10:00,69.7,67.3,30.00,ENE,62,0.0,0.0,92,0.00,,,0.00,WeatherCatV1.02B3,2013-07-04 09:10:00,
2013-07-04 04:15:00,69.6,67.2,30.00,ENE,62,0.0,0.0,92,0.00,,,0.00,WeatherCatV1.02B3,2013-07-04 09:15:00,
2013-07-04 04:20:00,69.6,67.2,30.00,ENE,62,0.0,0.0,92,0.00,,,0.00,WeatherCatV1.02B3,2013-07-04 09:20:00,
2013-07-04 04:25:00,69.5,67.1,30.00,ENE,62,0.0,0.0,92,0.00,,,0.00,WeatherCatV1.02B3,2013-07-04 09:25:00,
2013-07-04 04:30:00,69.5,67.1,30.00,ENE,62,0.0,0.0,92,0.00,,,0.00,WeatherCatV1.02B3,2013-07-04 09:30:00,
2013-07-04 04:35:00,69.5,67.1,30.00,ENE,62,0.0,0.0,92,0.00,,,0.00,WeatherCatV1.02B3,2013-07-04 09:35:00,
2013-07-04 04:40:00,69.4,67.3,30.01,ENE,62,0.0,0.0,93,0.00,,,0.00,WeatherCatV1.02B3,2013-07-04 09:40:00,
2013-07-04 04:45:00,69.4,67.3,30.00,ENE,62,0.0,1.0,93,0.00,,,0.00,WeatherCatV1.02B3,2013-07-04 09:45:00,
2013-07-04 04:50:00,69.5,67.4,30.01,ENE,62,0.0,0.0,93,0.00,,,0.00,WeatherCatV1.02B3,2013-07-04 09:50:00,
2013-07-04 04:55:00,69.6,67.5,30.00,ENE,62,0.0,1.0,93,0.00,,,0.00,WeatherCatV1.02B3,2013-07-04 09:55:00,
2013-07-04 05:00:00,69.6,67.5,30.01,ENE,62,0.0,0.0,93,0.00,,,0.00,WeatherCatV1.02B3,2013-07-04 10:00:00,
2013-07-04 05:05:00,69.7,67.6,30.00,ENE,62,0.0,0.0,93,0.00,,,0.00,WeatherCatV1.02B3,2013-07-04 10:05:00,
2013-07-04 05:10:00,69.8,67.7,30.00,ENE,62,0.0,0.0,93,0.00,,,0.00,WeatherCatV1.02B3,2013-07-04 10:10:00,
2013-07-04 05:15:00,69.8,67.7,30.01,ENE,62,0.0,1.0,93,0.00,,,0.00,WeatherCatV1.02B3,2013-07-04 10:15:00,
2013-07-04 05:20:00,69.8,67.7,30.01,ENE,62,0.0,0.0,93,0.00,,,0.00,WeatherCatV1.02B3,2013-07-04 10:20:00,
2013-07-04 05:25:00,69.9,67.8,30.01,ENE,62,0.0,0.0,93,0.00,,,0.00,WeatherCatV1.02B3,2013-07-04 10:25:00,
2013-07-04 05:30:00,69.9,67.8,30.01,ENE,62,0.0,0.0,93,0.00,,,0.00,WeatherCatV1.02B3,2013-07-04 10:30:00,
2013-07-04 05:35:00,69.9,67.8,30.01,ENE,62,0.0,0.0,93,0.00,,,0.00,WeatherCatV1.02B3,2013-07-04 10:35:00,
2013-07-04 05:40:00,69.9,67.8,30.01,ENE,62,0.0,0.0,93,0.00,,,0.00,WeatherCatV1.02B3,2013-07-04 10:40:00,
2013-07-04 05:45:00,69.9,67.8,30.01,ENE,62,0.0,0.0,93,0.00,,,0.00,WeatherCatV1.02B3,2013-07-04 10:45:00,
2013-07-04 05:50:00,69.9,68.1,30.02,ENE,62,0.0,0.0,94,0.00,,,0.00,WeatherCatV1.02B3,2013-07-04 10:50:00,
2013-07-04 05:55:00,70.1,68.3,30.01,ENE,62,0.0,0.0,94,0.00,,,0.00,WeatherCatV1.02B3,2013-07-04 10:55:00,
2013-07-04 06:00:00,70.2,68.4,30.01,ENE,62,0.0,0.0,94,0.00,,,0.00,WeatherCatV1.02B3,2013-07-04 11:00:00,
2013-07-04 06:05:00,70.3,68.5,30.01,ENE,62,0.0,0.0,94,0.00,,,0.00,WeatherCatV1.02B3,2013-07-04 11:05:00,
2013-07-04 06:10:00,70.4,68.6,30.01,ENE,62,0.0,0.0,94,0.00,,,0.00,WeatherCatV1.02B3,2013-07-04 11:10:00,
2013-07-04 06:15:00,70.5,68.7,30.01,ENE,62,0.0,0.0,94,0.00,,,0.00,WeatherCatV1.02B3,2013-07-04 11:15:00,
2013-07-04 06:20:00,70.6,68.8,30.02,ENE,62,0.0,0.0,94,0.00,,,0.00,WeatherCatV1.02B3,2013-07-04 11:20:00,
2013-07-04 06:25:00,70.7,68.9,30.01,ENE,62,0.0,0.0,94,0.00,,,0.00,WeatherCatV1.02B3,2013-07-04 11:25:00,
2013-07-04 06:30:00,70.8,69.0,30.02,ENE,62,0.0,0.0,94,0.00,,,0.00,WeatherCatV1.02B3,2013-07-04 11:30:00,
2013-07-04 06:35:00,70.9,69.1,30.01,ENE,62,0.0,0.0,94,0.00,,,0.00,WeatherCatV1.02B3,2013-07-04 11:35:00,
2013-07-04 06:40:00,71.0,69.2,30.01,ENE,62,0.0,0.0,94,0.00,,,0.00,WeatherCatV1.02B3,2013-07-04 11:40:00,
2013-07-04 06:45:00,71.2,69.4,30.02,ENE,62,0.0,0.0,94,0.00,,,0.00,WeatherCatV1.02B3,2013-07-04 11:45:00,
2013-07-04 06:50:00,71.3,69.5,30.01,ENE,62,0.0,0.0,94,0.00,,,0.00,WeatherCatV1.02B3,2013-07-04 11:50:00,
2013-07-04 06:55:00,71.6,69.8,30.01,ENE,62,0.0,0.0,94,0.00,,,0.00,WeatherCatV1.02B3,2013-07-04 11:55:00,
2013-07-04 07:00:00,71.7,69.9,30.01,ENE,62,0.0,0.0,94,0.00,,,0.00,WeatherCatV1.02B3,2013-07-04 12:00:00,
2013-07-04 07:05:00,71.9,70.1,30.01,ENE,62,0.0,0.0,94,0.00,,,0.00,WeatherCatV1.02B3,2013-07-04 12:05:00,
2013-07-04 07:10:00,72.0,70.2,30.01,ENE,62,0.0,0.0,94,0.00,,,0.00,WeatherCatV1.02B3,2013-07-04 12:10:00,
2013-07-04 07:15:00,71.7,69.9,30.01,ENE,62,0.0,0.0,94,0.00,,,0.00,WeatherCatV1.02B3,2013-07-04 12:15:00,
2013-07-04 07:20:00,71.7,69.9,30.01,ENE,62,0.0,0.0,94,0.00,,,0.00,WeatherCatV1.02B3,2013-07-04 12:20:00,
2013-07-04 07:25:00,71.9,70.1,30.02,ENE,62,0.0,0.0,94,0.00,,,0.00,WeatherCatV1.02B3,2013-07-04 12:25:00,
2013-07-04 07:30:00,72.2,70.7,30.01,ENE,62,0.0,0.0,95,0.00,,,0.00,WeatherCatV1.02B3,2013-07-04 12:30:00,
2013-07-04 07:35:00,72.2,70.4,30.01,ENE,62,0.0,1.0,94,0.00,,,0.00,WeatherCatV1.02B3,2013-07-04 12:35:00,
2013-07-04 07:40:00,72.1,70.3,30.02,ENE,62,0.0,1.0,94,0.00,,,0.00,WeatherCatV1.02B3,2013-07-04 12:40:00,
2013-07-04 07:45:00,72.1,70.3,30.02,ENE,73,2.0,2.0,94,0.00,,,0.00,WeatherCatV1.02B3,2013-07-04 12:45:00,
2013-07-04 07:50:00,71.9,70.1,30.02,East,99,0.0,0.0,94,0.00,,,0.00,WeatherCatV1.02B3,2013-07-04 12:50:00,
2013-07-04 07:55:00,71.8,70.0,30.02,East,99,0.0,0.0,94,0.00,,,0.00,WeatherCatV1.02B3,2013-07-04 12:55:00,
2013-07-04 08:00:00,71.9,70.1,30.02,North,355,0.0,1.0,94,0.00,,,0.00,WeatherCatV1.02B3,2013-07-04 13:00:00,
2013-07-04 08:05:00,71.9,70.1,30.02,North,355,0.0,0.0,94,0.00,,,0.00,WeatherCatV1.02B3,2013-07-04 13:05:00,
2013-07-04 08:10:00,72.0,70.2,30.02,North,355,0.0,0.0,94,0.00,,,0.00,WeatherCatV1.02B3,2013-07-04 13:10:00,
2013-07-04 08:15:00,72.1,70.3,30.02,North,355,0.0,0.0,94,0.00,,,0.00,WeatherCatV1.02B3,2013-07-04 13:15:00,
2013-07-04 08:20:00,72.1,70.3,30.02,North,355,0.0,0.0,94,0.00,,,0.00,WeatherCatV1.02B3,2013-07-04 13:20:00,
2013-07-04 08:25:00,72.1,70.3,30.03,North,355,0.0,0.0,94,0.00,,,0.00,WeatherCatV1.02B3,2013-07-04 13:25:00,
2013-07-04 08:30:00,72.3,70.5,30.03,ESE,105,0.0,2.0,94,0.00,,,0.00,WeatherCatV1.02B3,2013-07-04 13:30:00,
2013-07-04 08:35:00,72.4,70.6,30.03,ESE,105,0.0,2.0,94,0.00,,,0.00,WeatherCatV1.02B3,2013-07-04 13:35:00,
2013-07-04 08:40:00,72.6,70.5,30.03,ENE,67,0.0,2.0,93,0.00,,,0.00,WeatherCatV1.02B3,2013-07-04 13:40:00,
2013-07-04 08:45:00,72.6,70.5,30.03,ENE,67,0.0,0.0,93,0.00,,,0.00,WeatherCatV1.02B3,2013-07-04 13:45:00,
2013-07-04 08:50:00,72.9,70.8,30.03,ESE,117,0.0,4.0,93,0.00,,,0.00,WeatherCatV1.02B3,2013-07-04 13:50:00,
2013-07-04 08:55:00,73.1,70.6,30.03,WNW,292,1.0,1.0,92,0.00,,,0.00,WeatherCatV1.02B3,2013-07-04 13:55:00,
2013-07-04 09:00:00,73.6,71.1,30.03,NE,43,0.0,3.0,92,0.00,,,0.00,WeatherCatV1.02B3,2013-07-04 14:00:00,
2013-07-04 09:05:00,73.9,71.1,30.03,NE,51,1.0,3.0,91,0.00,,,0.00,WeatherCatV1.02B3,2013-07-04 14:05:00,
2013-07-04 09:10:00,74.0,70.9,30.03,NE,51,0.0,1.0,90,0.00,,,0.00,WeatherCatV1.02B3,2013-07-04 14:10:00,
2013-07-04 09:15:00,74.3,70.8,30.03,ENE,57,0.0,1.0,89,0.00,,,0.00,WeatherCatV1.02B3,2013-07-04 14:15:00,
2013-07-04 09:20:00,74.5,71.0,30.03,ENE,58,0.0,0.0,89,0.00,,,0.00,WeatherCatV1.02B3,2013-07-04 14:20:00,
2013-07-04 09:25:00,74.8,71.3,30.03,ESE,123,0.0,5.0,89,0.00,,,0.00,WeatherCatV1.02B3,2013-07-04 14:25:00,
2013-07-04 09:30:00,75.0,71.2,30.03,ENE,69,0.0,4.0,88,0.00,,,0.00,WeatherCatV1.02B3,2013-07-04 14:30:00,
2013-07-04 09:35:00,75.2,71.4,30.03,NE,36,0.0,6.0,88,0.00,,,0.00,WeatherCatV1.02B3,2013-07-04 14:35:00,
2013-07-04 09:40:00,75.5,71.3,30.03,ESE,105,0.0,4.0,87,0.00,,,0.00,WeatherCatV1.02B3,2013-07-04 14:40:00,
2013-07-04 09:45:00,75.7,71.2,30.03,ESE,105,0.0,1.0,86,0.00,,,0.00,WeatherCatV1.02B3,2013-07-04 14:45:00,
2013-07-04 09:50:00,75.8,71.3,30.03,NW,323,0.0,2.0,86,0.00,,,0.00,WeatherCatV1.02B3,2013-07-04 14:50:00,
2013-07-04 09:55:00,76.1,71.6,30.03,ENE,68,0.0,3.0,86,0.00,,,0.00,WeatherCatV1.02B3,2013-07-04 14:55:00,
2013-07-04 10:00:00,76.3,71.8,30.03,ENE,68,0.0,1.0,86,0.00,,,0.00,WeatherCatV1.02B3,2013-07-04 15:00:00,
2013-07-04 10:05:00,76.5,71.6,30.03,ENE,68,0.0,0.0,85,0.00,,,0.00,WeatherCatV1.02B3,2013-07-04 15:05:00,
2013-07-04 10:10:00,76.8,72.3,30.03,NNE,19,0.0,0.0,86,0.00,,,0.00,WeatherCatV1.02B3,2013-07-04 15:10:00,
2013-07-04 10:15:00,77.2,72.3,30.03,ENE,76,0.0,0.0,85,0.00,,,0.00,WeatherCatV1.02B3,2013-07-04 15:15:00,
2013-07-04 10:20:00,77.7,72.8,30.03,SE,124,0.0,5.0,85,0.00,,,0.00,WeatherCatV1.02B3,2013-07-04 15:20:00,
2013-07-04 10:25:00,78.0,72.4,30.03,NNE,15,2.0,2.0,83,0.00,,,0.00,WeatherCatV1.02B3,2013-07-04 15:25:00,
2013-07-04 10:30:00,78.4,72.8,30.02,NE,55,0.0,1.0,83,0.00,,,0.00,WeatherCatV1.02B3,2013-07-04 15:30:00,
2013-07-04 10:35:00,78.4,72.4,30.02,NE,36,0.0,1.0,82,0.00,,,0.00,WeatherCatV1.02B3,2013-07-04 15:35:00,
2013-07-04 10:40:00,78.4,72.4,30.02,ENE,76,0.0,2.0,82,0.00,,,0.00,WeatherCatV1.02B3,2013-07-04 15:40:00,
2013-07-04 10:45:00,78.9,72.6,30.02,NNE,16,0.0,1.0,81,0.00,,,0.00,WeatherCatV1.02B3,2013-07-04 15:45:00,
2013-07-04 10:50:00,79.1,72.8,30.02,East,82,1.0,1.0,81,0.00,,,0.00,WeatherCatV1.02B3,2013-07-04 15:50:00,
2013-07-04 10:55:00,79.3,72.6,30.02,SE,136,0.0,4.0,80,0.00,,,0.00,WeatherCatV1.02B3,2013-07-04 15:55:00,
2013-07-04 11:00:00,79.4,72.3,30.03,NE,45,0.0,2.0,79,0.00,,,0.00,WeatherCatV1.02B3,2013-07-04 16:00:00,
2013-07-04 11:05:00,79.4,72.7,30.02,ENE,65,0.0,4.0,80,0.00,,,0.00,WeatherCatV1.02B3,2013-07-04 16:05:00,
2013-07-04 11:10:00,79.7,73.0,30.03,ENE,69,0.0,2.0,80,0.00,,,0.00,WeatherCatV1.02B3,2013-07-04 16:10:00,
2013-07-04 11:15:00,80.4,74.0,30.03,NE,50,0.0,2.0,81,0.00,,,0.00,WeatherCatV1.02B3,2013-07-04 16:15:00,
2013-07-04 11:20:00,80.7,73.2,30.03,ENE,62,3.0,3.0,78,0.00,,,0.00,WeatherCatV1.02B3,2013-07-04 16:20:00,
2013-07-04 11:25:00,80.8,72.9,30.03,NNE,14,1.0,3.0,77,0.00,,,0.00,WeatherCatV1.02B3,2013-07-04 16:25:00,
2013-07-04 11:30:00,81.0,73.5,30.03,ENE,69,2.0,2.0,78,0.00,,,0.00,WeatherCatV1.02B3,2013-07-04 16:30:00,
2013-07-04 11:35:00,81.3,73.0,30.03,East,86,0.0,3.0,76,0.00,,,0.00,WeatherCatV1.02B3,2013-07-04 16:35:00,
2013-07-04 11:40:00,81.4,73.1,30.03,ENE,78,0.0,3.0,76,0.00,,,0.00,WeatherCatV1.02B3,2013-07-04 16:40:00,
2013-07-04 11:45:00,81.4,72.7,30.04,ENE,78,0.0,1.0,75,0.00,,,0.00,WeatherCatV1.02B3,2013-07-04 16:45:00,
2013-07-04 11:50:00,81.3,72.6,30.03,East,88,0.0,0.0,75,0.00,,,0.00,WeatherCatV1.02B3,2013-07-04 16:50:00,
2013-07-04 11:55:00,81.5,73.2,30.03,ENE,76,1.0,3.0,76,0.00,,,0.00,WeatherCatV1.02B3,2013-07-04 16:55:00,
2013-07-04 12:00:00,82.1,73.4,30.03,NE,42,0.0,2.0,75,0.00,,,0.00,WeatherCatV1.02B3,2013-07-04 17:00:00,
2013-07-04 12:05:00,82.1,73.4,30.03,ENE,64,0.0,2.0,75,0.00,,,0.00,WeatherCatV1.02B3,2013-07-04 17:05:00,
2013-07-04 12:11:00,82.3,74.0,30.03,ENE,64,0.0,1.0,76,0.00,,,0.00,WeatherCatV1.02B3,2013-07-04 17:11:00,
2013-07-04 12:16:00,82.3,72.3,30.03,NNW,341,0.0,0.0,72,0.00,,,0.00,WeatherCatV1.02B3,2013-07-04 17:16:00,
2013-07-04 12:21:00,82.1,73.0,30.03,ESE,118,0.0,4.0,74,0.00,,,0.00,WeatherCatV1.02B3,2013-07-04 17:21:00,
2013-07-04 12:26:00,82.0,72.9,30.03,NNE,28,0.0,1.0,74,0.00,,,0.00,WeatherCatV1.02B3,2013-07-04 17:26:00,
2013-07-04 12:31:00,81.8,72.7,30.03,SE,124,0.0,4.0,74,0.00,,,0.00,WeatherCatV1.02B3,2013-07-04 17:31:00,
2013-07-04 12:36:00,82.0,73.3,30.03,SE,124,0.0,0.0,75,0.00,,,0.00,WeatherCatV1.02B3,2013-07-04 17:36:00,
2013-07-04 12:41:00,82.0,72.5,30.02,NE,55,0.0,0.0,73,0.00,,,0.00,WeatherCatV1.02B3,2013-07-04 17:41:00,
2013-07-04 12:46:00,82.2,73.9,30.02,ENE,58,0.0,1.0,76,0.00,,,0.00,WeatherCatV1.02B3,2013-07-04 17:46:00,
2013-07-04 12:51:00,82.8,73.2,30.02,ENE,59,1.0,1.0,73,0.00,,,0.00,WeatherCatV1.02B3,2013-07-04 17:51:00,
2013-07-04 12:56:00,83.6,73.6,30.02,SE,134,0.0,5.0,72,0.00,,,0.00,WeatherCatV1.02B3,2013-07-04 17:56:00,
2013-07-04 13:01:00,84.2,72.9,30.02,NE,44,0.0,2.0,69,0.00,,,0.00,WeatherCatV1.02B3,2013-07-04 18:01:00,
2013-07-04 13:06:00,84.3,73.4,30.02,ENE,67,0.0,4.0,70,0.00,,,0.00,WeatherCatV1.02B3,2013-07-04 18:06:00,
2013-07-04 13:11:00,84.6,73.7,30.01,ENE,59,0.0,1.0,70,0.00,,,0.00,WeatherCatV1.02B3,2013-07-04 18:11:00,
2013-07-04 13:16:00,84.8,73.0,30.01,East,92,0.0,3.0,68,0.00,,,0.00,WeatherCatV1.02B3,2013-07-04 18:16:00,
2013-07-04 13:21:00,85.2,73.0,30.00,North,5,0.0,1.0,67,0.00,,,0.00,WeatherCatV1.02B3,2013-07-04 18:21:00,
2013-07-04 13:26:00,85.5,73.7,30.00,ESE,120,0.0,5.0,68,0.00,,,0.00,WeatherCatV1.02B3,2013-07-04 18:26:00,
2013-07-04 13:31:00,85.3,72.6,30.00,North,11,0.0,2.0,66,0.00,,,0.00,WeatherCatV1.02B3,2013-07-04 18:31:00,
2013-07-04 13:36:00,85.4,72.7,30.00,NE,56,0.0,4.0,66,0.00,,,0.00,WeatherCatV1.02B3,2013-07-04 18:36:00,
2013-07-04 13:41:00,85.6,72.5,30.00,East,82,0.0,0.0,65,0.00,,,0.00,WeatherCatV1.02B3,2013-07-04 18:41:00,
2013-07-04 13:46:00,86.1,74.3,30.00,ENE,67,1.0,4.0,68,0.00,,,0.00,WeatherCatV1.02B3,2013-07-04 18:46:00,
2013-07-04 13:51:00,85.9,73.6,30.00,North,5,0.0,2.0,67,0.00,,,0.00,WeatherCatV1.02B3,2013-07-04 18:51:00,
2013-07-04 13:56:00,86.1,73.4,30.00,ENE,73,1.0,7.0,66,0.00,,,0.00,WeatherCatV1.02B3,2013-07-04 18:56:00,
2013-07-04 14:01:00,86.5,72.8,30.00,NE,56,1.0,5.0,64,0.00,,,0.00,WeatherCatV1.02B3,2013-07-04 19:01:00,
2013-07-04 14:06:00,86.2,72.6,30.00,ESE,103,1.0,5.0,64,0.00,,,0.00,WeatherCatV1.02B3,2013-07-04 19:06:00,
2013-07-04 14:11:00,86.2,72.1,29.99,NNE,14,0.0,3.0,63,0.00,,,0.00,WeatherCatV1.02B3,2013-07-04 19:11:00,
2013-07-04 14:16:00,86.6,72.0,29.99,NE,34,0.0,0.0,62,0.00,,,0.00,WeatherCatV1.02B3,2013-07-04 19:16:00,
2013-07-04 14:21:00,87.3,72.7,29.99,NE,53,0.0,5.0,62,0.00,,,0.00,WeatherCatV1.02B3,2013-07-04 19:21:00,
2013-07-04 14:26:00,87.4,74.6,29.99,ENE,74,0.0,0.0,66,0.00,,,0.00,WeatherCatV1.02B3,2013-07-04 19:26:00,
2013-07-04 14:31:00,87.5,72.4,29.99,NE,56,0.0,2.0,61,0.00,,,0.00,WeatherCatV1.02B3,2013-07-04 19:31:00,
2013-07-04 14:36:00,87.4,73.7,29.98,ENE,73,0.0,4.0,64,0.00,,,0.00,WeatherCatV1.02B3,2013-07-04 19:36:00,
2013-07-04 14:41:00,87.7,73.5,29.98,ENE,67,1.0,1.0,63,0.00,,,0.00,WeatherCatV1.02B3,2013-07-04 19:41:00,
2013-07-04 14:46:00,88.4,73.7,29.98,ENE,57,1.0,8.0,62,0.00,,,0.00,WeatherCatV1.02B3,2013-07-04 19:46:00,
2013-07-04 14:51:00,88.6,72.9,29.98,ENE,67,1.0,3.0,60,0.00,,,0.00,WeatherCatV1.02B3,2013-07-04 19:51:00,
2013-07-04 14:56:00,87.6,71.5,29.97,SE,132,1.0,2.0,59,0.00,,,0.00,WeatherCatV1.02B3,2013-07-04 19:56:00,
2013-07-04 15:01:00,88.6,72.4,29.97,ENE,58,0.0,5.0,59,0.00,,,0.00,WeatherCatV1.02B3,2013-07-04 20:01:00,
2013-07-04 15:06:00,88.8,73.1,29.97,ENE,76,0.0,5.0,60,0.00,,,0.00,WeatherCatV1.02B3,2013-07-04 20:06:00,
2013-07-04 15:11:00,89.1,73.4,29.97,ENE,78,1.0,5.0,60,0.00,,,0.00,WeatherCatV1.02B3,2013-07-04 20:11:00,
2013-07-04 15:16:00,88.8,73.1,29.97,East,88,8.0,8.0,60,0.00,,,0.00,WeatherCatV1.02B3,2013-07-04 20:16:00,
2013-07-04 15:21:00,88.6,71.9,29.97,North,5,0.0,9.0,58,0.00,,,0.00,WeatherCatV1.02B3,2013-07-04 20:21:00,
2013-07-04 15:26:00,88.2,71.5,29.96,North,350,0.0,1.0,58,0.00,,,0.00,WeatherCatV1.02B3,2013-07-04 20:26:00,
2013-07-04 15:31:00,88.8,72.6,29.96,NNE,16,1.0,3.0,59,0.00,,,0.00,WeatherCatV1.02B3,2013-07-04 20:31:00,
2013-07-04 15:36:00,89.8,72.5,29.96,NE,47,0.0,4.0,57,0.00,,,0.00,WeatherCatV1.02B3,2013-07-04 20:36:00,
2013-07-04 15:41:00,89.6,71.8,29.96,NNE,22,0.0,2.0,56,0.00,,,0.00,WeatherCatV1.02B3,2013-07-04 20:41:00,
2013-07-04 15:46:00,89.7,73.4,29.96,NNE,26,0.0,1.0,59,0.00,,,0.00,WeatherCatV1.02B3,2013-07-04 20:46:00,
2013-07-04 15:51:00,89.3,72.5,29.96,ENE,67,1.0,2.0,58,0.00,,,0.00,WeatherCatV1.02B3,2013-07-04 20:51:00,
2013-07-04 15:56:00,88.5,71.3,29.96,NW,315,1.0,2.0,57,0.00,,,0.00,WeatherCatV1.02B3,2013-07-04 20:56:00,
2013-07-04 16:01:00,87.8,72.6,29.96,ENE,60,0.0,2.0,61,0.00,,,0.00,WeatherCatV1.02B3,2013-07-04 21:01:00,
2013-07-04 16:06:00,88.6,72.4,29.96,NE,36,0.0,7.0,59,0.00,,,0.00,WeatherCatV1.02B3,2013-07-04 21:06:00,
2013-07-04 16:11:00,88.4,70.7,29.96,NW,319,0.0,3.0,56,0.00,,,0.00,WeatherCatV1.02B3,2013-07-04 21:11:00,
2013-07-04 16:16:00,87.8,70.6,29.95,North,5,0.0,1.0,57,0.00,,,0.00,WeatherCatV1.02B3,2013-07-04 21:16:00,
2013-07-04 16:21:00,87.7,72.1,29.95,NNE,23,0.0,3.0,60,0.00,,,0.00,WeatherCatV1.02B3,2013-07-04 21:21:00,
2013-07-04 16:26:00,88.7,71.5,29.96,ENE,72,0.0,5.0,57,0.00,,,0.00,WeatherCatV1.02B3,2013-07-04 21:26:00,
2013-07-04 16:31:00,88.5,72.3,29.96,NNE,21,0.0,2.0,59,0.00,,,0.00,WeatherCatV1.02B3,2013-07-04 21:31:00,
2013-07-04 16:36:00,88.4,72.2,29.95,WNW,292,4.0,6.0,59,0.00,,,0.00,WeatherCatV1.02B3,2013-07-04 21:36:00,
2013-07-04 16:41:00,88.7,70.9,29.96,NNW,329,0.0,2.0,56,0.00,,,0.00,WeatherCatV1.02B3,2013-07-04 21:41:00,
2013-07-04 16:46:00,89.3,72.5,29.95,NE,53,0.0,6.0,58,0.00,,,0.00,WeatherCatV1.02B3,2013-07-04 21:46:00,
2013-07-04 16:51:00,89.3,71.5,29.95,ENE,69,2.0,5.0,56,0.00,,,0.00,WeatherCatV1.02B3,2013-07-04 21:51:00,
2013-07-04 16:56:00,88.9,72.7,29.95,North,350,0.0,1.0,59,0.00,,,0.00,WeatherCatV1.02B3,2013-07-04 21:56:00,
2013-07-04 17:01:00,89.4,72.1,29.95,ENE,69,4.0,4.0,57,0.00,,,0.00,WeatherCatV1.02B3,2013-07-04 22:01:00,
2013-07-04 17:06:00,89.1,71.3,29.95,ESE,121,6.0,7.0,56,0.00,,,0.00,WeatherCatV1.02B3,2013-07-04 22:06:00,
2013-07-04 17:11:00,88.8,71.6,29.95,NNE,22,0.0,4.0,57,0.00,,,0.00,WeatherCatV1.02B3,2013-07-04 22:11:00,
2013-07-04 17:16:00,88.3,71.6,29.95,NE,49,0.0,4.0,58,0.00,,,0.00,WeatherCatV1.02B3,2013-07-04 22:16:00,
2013-07-04 17:21:00,88.1,70.9,29.95,NNE,30,1.0,1.0,57,0.00,,,0.00,WeatherCatV1.02B3,2013-07-04 22:21:00,
2013-07-04 17:26:00,87.7,71.1,29.95,North,5,0.0,2.0,58,0.00,,,0.00,WeatherCatV1.02B3,2013-07-04 22:26:00,
2013-07-04 17:31:00,87.1,71.0,29.95,ENE,67,2.0,2.0,59,0.00,,,0.00,WeatherCatV1.02B3,2013-07-04 22:31:00,
2013-07-04 17:36:00,86.5,69.9,29.95,ENE,63,1.0,5.0,58,0.00,,,0.00,WeatherCatV1.02B3,2013-07-04 22:36:00,
2013-07-04 17:41:00,86.0,70.0,29.95,ENE,58,1.0,4.0,59,0.00,,,0.00,WeatherCatV1.02B3,2013-07-04 22:41:00,
2013-07-04 17:46:00,85.5,70.0,29.95,ENE,75,1.0,3.0,60,0.00,,,0.00,WeatherCatV1.02B3,2013-07-04 22:46:00,
2013-07-04 17:51:00,85.2,70.2,29.95,North,11,1.0,3.0,61,0.00,,,0.00,WeatherCatV1.02B3,2013-07-04 22:51:00,
2013-07-04 17:56:00,85.0,70.0,29.95,NE,55,0.0,1.0,61,0.00,,,0.00,WeatherCatV1.02B3,2013-07-04 22:56:00,
2013-07-04 18:01:00,85.0,70.5,29.95,ENE,68,0.0,5.0,62,0.00,,,0.00,WeatherCatV1.02B3,2013-07-04 23:01:00,
2013-07-04 18:06:00,85.1,70.6,29.95,ENE,78,1.0,2.0,62,0.00,,,0.00,WeatherCatV1.02B3,2013-07-04 23:06:00,
2013-07-04 18:11:00,85.2,70.7,29.95,NE,53,0.0,0.0,62,0.00,,,0.00,WeatherCatV1.02B3,2013-07-04 23:11:00,
2013-07-04 18:16:00,85.5,71.0,29.95,ENE,75,0.0,5.0,62,0.00,,,0.00,WeatherCatV1.02B3,2013-07-04 23:16:00,
2013-07-04 18:21:00,85.7,70.2,29.95,NE,51,0.0,3.0,60,0.00,,,0.00,WeatherCatV1.02B3,2013-07-04 23:21:00,
2013-07-04 18:26:00,85.7,69.7,29.95,ENE,58,0.0,1.0,59,0.00,,,0.00,WeatherCatV1.02B3,2013-07-04 23:26:00,
2013-07-04 18:31:00,85.4,69.4,29.95,NE,46,2.0,4.0,59,0.00,,,0.00,WeatherCatV1.02B3,2013-07-04 23:31:00,
2013-07-04 18:36:00,85.2,69.2,29.95,NE,38,1.0,1.0,59,0.00,,,0.00,WeatherCatV1.02B3,2013-07-04 23:36:00,
2013-07-04 18:41:00,85.1,69.1,29.95,NE,55,0.0,3.0,59,0.00,,,0.00,WeatherCatV1.02B3,2013-07-04 23:41:00,
2013-07-04 18:46:00,85.1,70.1,29.95,NE,55,0.0,1.0,61,0.00,,,0.00,WeatherCatV1.02B3,2013-07-04 23:46:00,
2013-07-04 18:51:00,85.2,69.7,29.95,ENE,67,0.0,3.0,60,0.00,,,0.00,WeatherCatV1.02B3,2013-07-04 23:51:00,
2013-07-04 18:56:00,85.2,69.7,29.95,East,79,0.0,0.0,60,0.00,,,0.00,WeatherCatV1.02B3,2013-07-04 23:56:00,
2013-07-04 19:01:00,85.2,69.7,29.96,ENE,61,0.0,1.0,60,0.00,,,0.00,WeatherCatV1.02B3,2013-07-05 00:01:00,
2013-07-04 19:06:00,85.2,69.7,29.96,NW,313,0.0,3.0,60,0.00,,,0.00,WeatherCatV1.02B3,2013-07-05 00:06:00,
2013-07-04 19:11:00,85.1,70.1,29.96,NE,36,0.0,3.0,61,0.00,,,0.00,WeatherCatV1.02B3,2013-07-05 00:11:00,
2013-07-04 19:16:00,85.0,70.0,29.97,NNE,18,0.0,1.0,61,0.00,,,0.00,WeatherCatV1.02B3,2013-07-05 00:16:00,
2013-07-04 19:21:00,84.9,69.4,29.97,NE,45,0.0,2.0,60,0.00,,,0.00,WeatherCatV1.02B3,2013-07-05 00:21:00,
2013-07-04 19:26:00,84.8,69.8,29.97,NNE,13,0.0,1.0,61,0.00,,,0.00,WeatherCatV1.02B3,2013-07-05 00:26:00,
2013-07-04 19:31:00,84.7,69.7,29.97,NNE,26,0.0,2.0,61,0.00,,,0.00,WeatherCatV1.02B3,2013-07-05 00:31:00,
2013-07-04 19:36:00,84.6,70.1,29.97,ENE,67,0.0,1.0,62,0.00,,,0.00,WeatherCatV1.02B3,2013-07-05 00:36:00,
2013-07-04 19:41:00,84.5,70.0,29.97,NE,43,0.0,2.0,62,0.00,,,0.00,WeatherCatV1.02B3,2013-07-05 00:41:00,
2013-07-04 19:46:00,84.3,70.3,29.97,SE,139,0.0,5.0,63,0.00,,,0.00,WeatherCatV1.02B3,2013-07-05 00:46:00,
2013-07-04 19:51:00,84.1,71.0,29.97,ESE,115,0.0,1.0,65,0.00,,,0.00,WeatherCatV1.02B3,2013-07-05 00:51:00,
2013-07-04 19:56:00,83.9,70.8,29.97,ENE,61,0.0,2.0,65,0.00,,,0.00,WeatherCatV1.02B3,2013-07-05 00:56:00,
2013-07-04 20:01:00,83.4,71.3,29.97,ESE,104,0.0,4.0,67,0.00,,,0.00,WeatherCatV1.02B3,2013-07-05 01:01:00,
2013-07-04 20:06:00,83.0,71.3,29.97,ESE,107,0.0,2.0,68,0.00,,,0.00,WeatherCatV1.02B3,2013-07-05 01:06:00,
2013-07-04 20:11:00,82.8,71.6,29.97,ESE,107,0.0,0.0,69,0.00,,,0.00,WeatherCatV1.02B3,2013-07-05 01:11:00,
2013-07-04 20:16:00,82.5,71.7,29.97,ESE,107,0.0,0.0,70,0.00,,,0.00,WeatherCatV1.02B3,2013-07-05 01:16:00,
2013-07-04 20:21:00,82.1,71.7,29.97,ESE,107,0.0,0.0,71,0.00,,,0.00,WeatherCatV1.02B3,2013-07-05 01:21:00,
2013-07-04 20:26:00,81.9,72.0,29.97,ESE,107,0.0,0.0,72,0.00,,,0.00,WeatherCatV1.02B3,2013-07-05 01:26:00,
2013-07-04 20:31:00,81.7,72.2,29.96,ESE,107,0.0,0.0,73,0.00,,,0.00,WeatherCatV1.02B3,2013-07-05 01:31:00,
2013-07-04 20:36:00,81.5,72.0,29.97,ESE,107,0.0,0.0,73,0.00,,,0.00,WeatherCatV1.02B3,2013-07-05 01:36:00,
2013-07-04 20:41:00,81.2,71.7,29.97,ESE,107,0.0,0.0,73,0.00,,,0.00,WeatherCatV1.02B3,2013-07-05 01:41:00,
2013-07-04 20:46:00,80.9,71.8,29.97,ESE,107,0.0,0.0,74,0.00,,,0.00,WeatherCatV1.02B3,2013-07-05 01:46:00,
2013-07-04 20:51:00,80.7,71.6,29.97,ESE,107,0.0,0.0,74,0.00,,,0.00,WeatherCatV1.02B3,2013-07-05 01:51:00,
2013-07-04 20:56:00,80.4,71.7,29.98,ESE,107,0.0,0.0,75,0.00,,,0.00,WeatherCatV1.02B3,2013-07-05 01:56:00,
2013-07-04 21:01:00,80.2,71.5,29.98,ESE,107,0.0,0.0,75,0.00,,,0.00,WeatherCatV1.02B3,2013-07-05 02:01:00,
2013-07-04 21:06:00,80.0,71.3,29.98,ESE,107,0.0,0.0,75,0.00,,,0.00,WeatherCatV1.02B3,2013-07-05 02:06:00,
2013-07-04 21:11:00,79.7,71.4,29.99,ESE,107,0.0,0.0,76,0.00,,,0.00,WeatherCatV1.02B3,2013-07-05 02:11:00,
2013-07-04 21:16:00,79.5,71.6,29.99,ESE,107,0.0,0.0,77,0.00,,,0.00,WeatherCatV1.02B3,2013-07-05 02:16:00,
2013-07-04 21:21:00,79.2,71.3,29.99,ESE,107,0.0,0.0,77,0.00,,,0.00,WeatherCatV1.02B3,2013-07-05 02:21:00,
2013-07-04 21:26:00,79.0,71.2,29.99,ESE,107,0.0,0.0,77,0.00,,,0.00,WeatherCatV1.02B3,2013-07-05 02:26:00,
2013-07-04 21:31:00,78.9,71.4,29.99,ESE,107,0.0,0.0,78,0.00,,,0.00,WeatherCatV1.02B3,2013-07-05 02:31:00,
2013-07-04 21:36:00,78.7,71.2,30.00,ESE,107,0.0,0.0,78,0.00,,,0.00,WeatherCatV1.02B3,2013-07-05 02:36:00,
2013-07-04 21:41:00,78.6,71.1,30.00,ESE,107,0.0,0.0,78,0.00,,,0.00,WeatherCatV1.02B3,2013-07-05 02:41:00,
2013-07-04 21:46:00,78.5,71.4,30.00,ESE,107,0.0,0.0,79,0.00,,,0.00,WeatherCatV1.02B3,2013-07-05 02:46:00,
2013-07-04 21:51:00,78.3,71.2,30.00,ESE,107,0.0,0.0,79,0.00,,,0.00,WeatherCatV1.02B3,2013-07-05 02:51:00,
2013-07-04 21:56:00,78.2,71.1,30.00,ESE,107,0.0,0.0,79,0.00,,,0.00,WeatherCatV1.02B3,2013-07-05 02:56:00,
2013-07-04 22:01:00,78.0,71.3,30.00,ESE,107,0.0,0.0,80,0.00,,,0.00,WeatherCatV1.02B3,2013-07-05 03:01:00,
2013-07-04 22:06:00,77.9,71.2,30.00,ESE,107,0.0,0.0,80,0.00,,,0.00,WeatherCatV1.02B3,2013-07-05 03:06:00,
2013-07-04 22:11:00,77.9,71.6,30.00,ESE,107,0.0,0.0,81,0.00,,,0.00,WeatherCatV1.02B3,2013-07-05 03:11:00,
2013-07-04 22:16:00,77.8,71.5,30.00,ESE,107,0.0,0.0,81,0.00,,,0.00,WeatherCatV1.02B3,2013-07-05 03:16:00,
2013-07-04 22:21:00,77.7,71.4,30.00,ESE,107,0.0,0.0,81,0.00,,,0.00,WeatherCatV1.02B3,2013-07-05 03:21:00,
2013-07-04 22:26:00,77.6,71.7,30.00,ESE,107,0.0,0.0,82,0.00,,,0.00,WeatherCatV1.02B3,2013-07-05 03:26:00,
2013-07-04 22:31:00,77.6,71.7,30.00,ESE,107,0.0,0.0,82,0.00,,,0.00,WeatherCatV1.02B3,2013-07-05 03:31:00,
2013-07-04 22:36:00,77.5,71.6,30.01,ESE,107,0.0,0.0,82,0.00,,,0.00,WeatherCatV1.02B3,2013-07-05 03:36:00,
2013-07-04 22:41:00,77.5,71.9,30.01,ESE,107,0.0,0.0,83,0.00,,,0.00,WeatherCatV1.02B3,2013-07-05 03:41:00,
2013-07-04 22:46:00,77.4,71.8,30.01,ESE,107,0.0,0.0,83,0.00,,,0.00,WeatherCatV1.02B3,2013-07-05 03:46:00,
2013-07-04 22:51:00,77.4,71.8,30.01,ESE,107,0.0,0.0,83,0.00,,,0.00,WeatherCatV1.02B3,2013-07-05 03:51:00,
2013-07-04 22:56:00,77.3,71.7,30.00,ESE,107,0.0,0.0,83,0.00,,,0.00,WeatherCatV1.02B3,2013-07-05 03:56:00,
2013-07-04 23:01:00,77.2,71.6,30.00,ESE,107,0.0,0.0,83,0.00,,,0.00,WeatherCatV1.02B3,2013-07-05 04:01:00,
2013-07-04 23:06:00,77.1,71.5,30.00,ESE,107,0.0,0.0,83,0.00,,,0.00,WeatherCatV1.02B3,2013-07-05 04:06:00,
2013-07-04 23:11:00,77.0,71.4,30.00,ESE,107,0.0,0.0,83,0.00,,,0.00,WeatherCatV1.02B3,2013-07-05 04:11:00,
2013-07-04 23:16:00,76.9,71.7,30.00,ESE,107,0.0,0.0,84,0.00,,,0.00,WeatherCatV1.02B3,2013-07-05 04:16:00,
2013-07-04 23:21:00,76.8,71.6,30.00,ESE,107,0.0,0.0,84,0.00,,,0.00,WeatherCatV1.02B3,2013-07-05 04:21:00,
2013-07-04 23:26:00,76.7,71.5,30.00,ESE,107,0.0,0.0,84,0.00,,,0.00,WeatherCatV1.02B3,2013-07-05 04:26:00,
2013-07-04 23:31:00,76.6,71.7,30.00,ESE,107,0.0,0.0,85,0.00,,,0.00,WeatherCatV1.02B3,2013-07-05 04:31:00,
2013-07-04 23:36:00,76.4,71.5,30.00,ESE,107,0.0,0.0,85,0.00,,,0.00,WeatherCatV1.02B3,2013-07-05 04:36:00,
2013-07-04 23:41:00,76.2,71.3,30.00,ESE,107,0.0,2.0,85,0.00,,,0.00,WeatherCatV1.02B3,2013-07-05 04:41:00,
2013-07-04 23:46:00,76.0,71.5,30.00,ESE,107,0.0,1.0,86,0.00,,,0.00,WeatherCatV1.02B3,2013-07-05 04:46:00,
2013-07-04 23:51:00,75.9,71.4,30.01,ESE,107,0.0,0.0,86,0.00,,,0.00,WeatherCatV1.02B3,2013-07-05 04:51:00,
2013-07-04 23:56:00,75.8,71.6,30.01,ESE,107,0.0,0.0,87,0.00,,,0.00,WeatherCatV1.02B3,2013-07-05 04:56:00,